TimeCDT,TemperatureF,Dew PointF,Humidity,Sea Level PressureIn,VisibilityMPH,Wind Direction,Wind SpeedMPH,Gust SpeedMPH,PrecipitationIn,Events,Conditions,WindDirDegrees,DateUTC
12:52 AM,61.0,55.0,81,30.15,10.0,NNW,12.7,17.3,N/A,,Clear,330,2012-10-05 05:52:00
1:52 AM,55.9,50.0,80,30.16,10.0,NNW,6.9,-,N/A,,Clear,340,2012-10-05 06:52:00
3:52 AM,53.1,48.0,83,30.17,10.0,NNW,6.9,-,N/A,,Clear,330,2012-10-05 08:52:00
4:52 AM,52.0,48.0,86,30.18,10.0,NW,6.9,-,N/A,,Clear,320,2012-10-05 09:52:00
5:52 AM,52.0,48.0,86,30.18,10.0,NNW,6.9,-,N/A,,Overcast,340,2012-10-05 10:52:00
6:52 AM,50.0,48.0,93,30.18,10.0,Calm,Calm,-,N/A,,Scattered Clouds,0,2012-10-05 11:52:00
7:52 AM,53.1,48.0,83,30.17,10.0,Calm,Calm,-,N/A,,Partly Cloudy,0,2012-10-05 12:52:00
8:52 AM,55.0,46.0,72,30.18,10.0,North,10.4,-,N/A,,Mostly Cloudy,10,2012-10-05 13:52:00
9:52 AM,55.0,46.0,72,30.18,10.0,North,5.8,-,N/A,,Scattered Clouds,10,2012-10-05 14:52:00
10:52 AM,57.0,46.0,67,30.16,10.0,ENE,8.1,-,N/A,,Mostly Cloudy,60,2012-10-05 15:52:00
12:52 PM,57.0,46.9,69,30.12,10.0,North,6.9,-,N/A,,Overcast,10,2012-10-05 17:52:00
1:09 PM,55.4,46.4,72,30.12,10.0,North,6.9,-,N/A,Thunderstorm,Overcast,350,2012-10-05 18:09:00
2:00 PM,51.8,48.2,88,30.09,10.0,North,9.2,-,0.00,Rain-Thunderstorm,Light Rain,10,2012-10-05 19:00:00
2:09 PM,51.8,48.2,88,30.08,10.0,North,8.1,-,0.00,,Overcast,360,2012-10-05 19:09:00
2:11 PM,51.8,48.2,88,30.09,10.0,North,9.2,-,0.00,Thunderstorm,Overcast,350,2012-10-05 19:11:00
2:30 PM,50.0,48.2,94,30.09,10.0,North,11.5,-,0.00,Thunderstorm,Overcast,360,2012-10-05 19:30:00
2:41 PM,50.0,46.4,87,30.09,10.0,North,9.2,-,0.00,,Overcast,350,2012-10-05 19:41:00
2:52 PM,50.0,46.9,89,30.11,10.0,NNW,12.7,-,0.00,Rain,Light Rain,340,2012-10-05 19:52:00
3:47 PM,48.2,46.4,93,30.10,2.5,NNW,13.8,20.7,0.06,Rain,Heavy Rain,340,2012-10-05 20:47:00
3:52 PM,46.9,45.0,93,30.10,3.0,NNW,17.3,20.7,0.07,Rain,Light Rain,340,2012-10-05 20:52:00
4:52 PM,46.0,44.1,93,30.12,7.0,North,10.4,-,0.04,Rain,Rain,360,2012-10-05 21:52:00
5:39 PM,46.4,42.8,87,30.16,10.0,NNW,11.5,20.7,0.05,Rain,Light Rain,340,2012-10-05 22:39:00
5:52 PM,46.0,43.0,89,30.15,5.0,North,12.7,-,0.08,Rain,Light Rain,350,2012-10-05 22:52:00
6:08 PM,44.6,42.8,93,30.15,5.0,NNW,13.8,19.6,0.02,Rain,Rain,340,2012-10-05 23:08:00
6:22 PM,44.6,42.8,93,30.16,7.0,NNW,16.1,21.9,0.03,Rain,Rain,340,2012-10-05 23:22:00
6:52 PM,44.1,42.1,93,30.18,7.0,North,13.8,25.3,0.07,Rain,Light Rain,350,2012-10-05 23:52:00
7:07 PM,44.6,39.2,81,30.17,9.0,North,12.7,-,0.04,Rain,Light Rain,360,2012-10-06 00:07:00
7:52 PM,44.1,41.0,89,30.19,10.0,NNW,10.4,-,0.04,Rain,Light Rain,330,2012-10-06 00:52:00
8:00 PM,44.6,41.0,87,30.19,10.0,NNW,13.8,-,0.01,,Overcast,340,2012-10-06 01:00:00
8:08 PM,44.6,39.2,81,30.17,10.0,North,10.4,-,0.01,Thunderstorm,Thunderstorm,360,2012-10-06 01:08:00
8:16 PM,44.6,39.2,81,30.20,10.0,NNW,10.4,-,0.01,Rain-Thunderstorm,Light Thunderstorms and Rain,330,2012-10-06 01:16:00
8:38 PM,44.6,41.0,87,30.18,10.0,North,4.6,-,0.02,,Overcast,360,2012-10-06 01:38:00
8:52 PM,43.0,39.9,89,30.18,10.0,NNE,9.2,-,0.03,Rain,Light Rain,20,2012-10-06 01:52:00
9:12 PM,42.8,41.0,93,30.18,10.0,North,5.8,-,0.01,Rain-Thunderstorm,Light Rain,360,2012-10-06 02:12:00
9:28 PM,42.8,41.0,93,30.18,5.0,North,5.8,-,0.05,Rain,Heavy Rain,350,2012-10-06 02:28:00
9:52 PM,43.0,39.9,89,30.19,10.0,NNE,6.9,-,0.06,Rain,Light Rain,20,2012-10-06 02:52:00
10:52 PM,43.0,39.9,89,30.20,10.0,NNW,3.5,-,N/A,,Mostly Cloudy,340,2012-10-06 03:52:00
11:52 PM,41.0,39.9,96,30.20,10.0,NW,5.8,-,N/A,,Clear,320,2012-10-06 04:52:00